Location: Newark
(45.5000°N, 11.4167°E)
Time: 16:27:59
(UTC+00:00)

Vanguard 1 - All Passes

Search period start: 21 August 2019 00:00
Search period end: 31 August 2019 00:00
Orbit: 655 x 3829 km, 34.2° (Epoch: 20 August)

Date Brightness Start Highest point End Pass type
(mag) Time Alt. Az. Time Alt. Az. Time Alt. Az.
21 Aug - 11:05:36 10° SW 11:08:48 19° S 11:12:00 10° SE daylight
21 Aug - 13:24:30 10° SW 13:28:03 22° S 13:32:27 10° SE daylight
21 Aug - 15:45:13 10° SW 15:47:54 13° SSW 15:51:06 10° S daylight
22 Aug - 09:08:45 10° S 09:10:14 11° SSE 09:11:38 10° SE daylight
22 Aug - 11:26:09 10° SW 11:29:34 21° S 11:33:01 10° SE daylight
22 Aug - 13:45:33 10° SW 13:48:52 19° S 13:52:56 10° SE daylight
23 Aug - 09:28:04 10° SSW 09:31:02 15° SSE 09:33:39 10° SE daylight
23 Aug - 11:46:53 10° SW 11:50:19 21° S 11:53:53 10° SE daylight
23 Aug - 14:06:51 10° SW 14:09:42 15° SSW 14:13:04 10° SSE daylight
24 Aug - 09:48:13 10° SSW 09:51:49 18° S 09:54:57 10° SE daylight
24 Aug - 12:07:45 10° SW 12:11:05 20° S 12:14:36 10° SE daylight
24 Aug - 14:28:50 10° SW 14:30:32 11° SSW 14:32:24 10° S daylight
25 Aug - 07:50:30 10° S 07:52:57 12° SSE 07:55:06 10° SE daylight
25 Aug - 10:08:42 10° SW 10:12:38 21° S 10:16:00 10° SE daylight
25 Aug - 12:28:46 10° SW 12:31:51 18° S 12:35:08 10° SE daylight
26 Aug - 08:09:46 10° SSW 08:13:50 16° SSE 08:17:06 10° SE daylight
26 Aug - 10:29:24 10° SW 10:33:24 22° S 10:36:52 10° SE daylight
26 Aug - 12:50:01 10° SW 12:52:36 15° SSW 12:55:23 10° SSE daylight
27 Aug - 08:29:50 10° SW 08:34:43 20° S 08:38:26 10° ESE daylight
27 Aug - 10:50:16 10° SW 10:54:10 22° S 10:57:38 10° SE daylight
27 Aug - 13:11:49 10° SW 13:13:22 11° SSW 13:14:58 10° S daylight
28 Aug - 06:31:19 10° S 06:35:25 14° SSE 06:38:45 10° SE daylight
28 Aug - 08:50:17 10° SW 08:55:34 23° S 08:59:31 10° ESE daylight
28 Aug - 11:11:16 10° WSW 11:14:55 20° S 11:18:14 10° SE daylight
29 Aug - 06:50:31 10° SSW 06:56:23 18° SSE 07:00:43 10° ESE daylight
29 Aug - 09:10:59 10° SW 09:16:24 25° S 09:20:25 10° ESE daylight
29 Aug - 11:32:25 10° WSW 11:35:38 18° SSW 11:38:38 10° SSE daylight
30 Aug - 04:55:09 10° SSE 04:56:27 10° SSE 04:57:41 10° SSE daylight
30 Aug - 07:10:27 10° SW 07:17:21 22° SSE 07:22:06 10° ESE daylight
30 Aug - 09:31:51 10° WSW 09:37:12 26° S 09:41:12 10° SE daylight
30 Aug - 11:53:52 10° SW 11:56:19 14° SSW 11:58:41 10° SSE daylight
